Location: Barton Flats Campground
(34.1722°N, 116.8753°W)
Time: 20:21:55
(UTC+00:00)

Cosmos 2263 Rocket - Pass Details

Date: 08 August 2020
Orbit: 823 x 849 km, 71.0° (Epoch: 01 October)

Event Time Altitude Azimuth Distance (km) Brightness Sun altitude
Exits shadow 12:17:58 - 268° (W) 2,499 4.1 -9.6°
Reaches altitude 10° 12:18:20 10° 271° (W) 2,424 4.1 -9.5°
Maximum altitude 12:21:21 15° 305° (NW) 2,109 4.0 -9.0°
Drops below altitude 10° 12:24:23 10° 338° (NNW) 2,426 4.7 -8.4°
Sets 12:28:00 0° 2° (N) 3,362 5.7 -7.7°
